Location: Coopersdale
(40.3556°N, 78.9372°W)
Time: 03:00:10
(UTC+00:00)

Tiros 1 despin weight - Pass Details

Date: 27 January 2021
Orbit: 593 x 642 km, 48.2° (Epoch: 02 March)

Event Time Altitude Azimuth Distance (km) Brightness Sun altitude
Rises 23:58:52 0° 300° (WNW) 2,857 ? -17.5°
Reaches altitude 10° 00:01:11 10° 301° (WNW) 1,944 ? -17.9°
Maximum altitude 00:05:39 85° 30° (NNE) 602 ? -18.8°
Enters shadow 00:07:16 39° 116° (ESE) 898 ? -19.1°
Drops below altitude 10° 00:10:03 10° 119° (ESE) 1,919 - -19.6°
Sets 00:12:20 0° 120° (ESE) 2,816 - -20.0°
